Simultaneous Nadir Overpasses (SNOs) Predictions

Prediction of SNOs between AURA and NPP Satellite Orbit:

Table of predicted SNOs for the next 14.0 days since TLE Epoch: 7/30/2022
Index Date (AURA) Time (AURA) Lat,Lon (AURA) SZA (AURA ) Date (NPP) Time (NPP) Lat,Lon (NPP) SZA (NPP ) Distance(km) Time Diff (sec)
1 07/31/2022 02:52:33 79.30, 32.40 74.98 07/31/2022 02:51:26 79.31, 32.53 75.00 2.69 67
2 07/31/2022 03:41:55 -79.50,-158.63 105.31 07/31/2022 03:42:06 -79.49,-158.70 105.30 1.68 11
3 08/02/2022 19:09:03 79.32, 148.42 75.61 08/02/2022 19:08:23 79.32, 148.38 75.64 0.79 40
4 08/02/2022 19:58:23 -79.60, -42.06 104.80 08/02/2022 19:59:00 -79.60, -42.01 104.84 1.22 37
5 08/05/2022 11:25:32 79.37, -95.37 76.22 08/05/2022 11:25:19 79.37, -95.51 76.26 3.03 13
6 08/05/2022 12:14:52 -79.65, 74.19 104.19 08/05/2022 12:15:56 -79.65, 74.13 104.23 1.08 64
7 08/08/2022 02:52:40 -79.23,-148.05 102.87 08/08/2022 02:51:36 -79.23,-148.11 102.81 1.39 64
8 08/08/2022 03:41:57 79.57, 21.84 76.65 08/08/2022 03:42:10 79.57, 21.95 76.62 2.39 13
9 08/10/2022 19:09:07 -79.31, -31.69 102.24 08/10/2022 19:08:30 -79.31, -31.75 102.20 1.28 37



Historial Predications of SNOs between AURA and NPP
